AAY963 KGSP-KSFB

Flight info

Callsign AAY963
Flight time N/A
Altitude 35000
Route SOTHH QUIWE Q93 GIPPL Q85 LPERD TTHOR3
Aircraft A320/M-SDE3FGHIRWY/LB1

Departure

Time 2026-04-26 00:20
Airport Greenville-Spartanburg International Airport (KGSP)

Arrival

Time N/A
Airport Orlando Sanford International Airport (KSFB)
Time Latitude Longitude Altitude Speed Heading
2026-04-26 00:03 34.89197 -82.21726 973 ft 0 kts 121°
2026-04-26 00:10 34.89201 -82.21733 972 ft 4 kts 122°
2026-04-26 00:10 34.89217 -82.21761 972 ft 4 kts 131°
2026-04-26 00:10 34.89236 -82.21782 972 ft 4 kts 156°
2026-04-26 00:11 34.89257 -82.21786 980 ft 1 kts 212°
2026-04-26 00:15 34.89209 -82.21822 980 ft 13 kts 212°
2026-04-26 00:15 34.89125 -82.21886 973 ft 13 kts 212°
2026-04-26 00:15 34.89063 -82.21934 980 ft 9 kts 212°
2026-04-26 00:16 34.89005 -82.21989 972 ft 11 kts 245°
2026-04-26 00:16 34.89003 -82.22073 980 ft 12 kts 238°
2026-04-26 00:16 34.88919 -82.22143 975 ft 16 kts 213°
2026-04-26 00:16 34.88839 -82.22205 977 ft 11 kts 212°
2026-04-26 00:17 34.88760 -82.22263 980 ft 18 kts 210°
2026-04-26 00:17 34.88651 -82.22346 975 ft 17 kts 211°
2026-04-26 00:17 34.88567 -82.22412 975 ft 12 kts 211°
2026-04-26 00:17 34.88513 -82.22454 978 ft 7 kts 213°
2026-04-26 00:18 34.88466 -82.22491 979 ft 10 kts 212°
2026-04-26 00:18 34.88371 -82.22562 976 ft 15 kts 211°
2026-04-26 00:18 34.88292 -82.22621 968 ft 11 kts 212°
2026-04-26 00:18 34.88236 -82.22670 967 ft 10 kts 227°
2026-04-26 00:19 34.88250 -82.22766 958 ft 14 kts 302°
2026-04-26 00:19 34.88298 -82.22835 965 ft 8 kts 342°
2026-04-26 00:19 34.88342 -82.22820 961 ft 5 kts 29°
2026-04-26 00:19 34.88384 -82.22789 961 ft 11 kts 32°
2026-04-26 00:20 34.88509 -82.22691 965 ft 48 kts 32°
2026-04-26 00:20 34.88994 -82.22322 963 ft 113 kts 32°
2026-04-26 00:20 34.89810 -82.21698 975 ft 162 kts 32°
2026-04-26 00:20 34.90770 -82.20964 1575 ft 163 kts 33°
2026-04-26 00:21 34.91746 -82.20235 2253 ft 166 kts 32°
2026-04-26 00:21 34.92747 -82.19509 2900 ft 169 kts 33°
2026-04-26 00:21 34.93648 -82.18499 3291 ft 186 kts 58°
2026-04-26 00:21 34.93996 -82.16944 3746 ft 202 kts 89°
2026-04-26 00:22 34.93621 -82.15205 3990 ft 227 kts 119°
2026-04-26 00:22 34.92494 -82.13691 4229 ft 258 kts 146°
2026-04-26 00:22 34.90796 -82.12743 4624 ft 280 kts 166°
2026-04-26 00:22 34.88861 -82.12272 5467 ft 284 kts 172°
2026-04-26 00:23 34.86917 -82.12004 6521 ft 278 kts 182°
2026-04-26 00:23 34.85009 -82.12158 7543 ft 274 kts 187°
2026-04-26 00:23 34.83090 -82.12322 8393 ft 279 kts 186°
2026-04-26 00:23 34.81136 -82.12099 9188 ft 289 kts 165°
2026-04-26 00:24 34.79313 -82.11009 10001 ft 295 kts 152°
2026-04-26 00:24 34.77492 -82.09697 10396 ft 316 kts 152°
2026-04-26 00:24 34.75538 -82.08270 10639 ft 339 kts 152°
2026-04-26 00:24 34.73461 -82.06745 11048 ft 355 kts 152°
2026-04-26 00:25 34.71300 -82.05151 11729 ft 361 kts 151°
2026-04-26 00:25 34.69138 -82.03560 12454 ft 365 kts 152°
2026-04-26 00:25 34.66954 -82.01960 13164 ft 369 kts 152°
2026-04-26 00:25 34.64741 -82.00343 13849 ft 373 kts 152°
2026-04-26 00:26 34.62500 -81.98717 14519 ft 377 kts 152°
2026-04-26 00:26 34.60244 -81.97078 15166 ft 380 kts 152°
2026-04-26 00:26 34.57963 -81.95421 15774 ft 384 kts 152°
2026-04-26 00:26 34.55650 -81.93745 16373 ft 389 kts 152°
2026-04-26 00:27 34.53320 -81.92057 16942 ft 393 kts 152°
2026-04-26 00:27 34.50957 -81.90344 17490 ft 397 kts 152°
2026-04-26 00:27 34.48579 -81.88621 18034 ft 401 kts 152°
2026-04-26 00:27 34.46170 -81.86879 18551 ft 405 kts 152°
2026-04-26 00:28 34.43738 -81.85121 19071 ft 409 kts 152°
2026-04-26 00:28 34.41285 -81.83350 19583 ft 412 kts 152°
2026-04-26 00:28 34.38814 -81.81566 20092 ft 415 kts 152°
2026-04-26 00:28 34.36322 -81.79770 20582 ft 419 kts 152°
2026-04-26 00:29 34.33811 -81.77959 21054 ft 422 kts 152°
2026-04-26 00:29 34.31280 -81.76130 21519 ft 425 kts 152°
2026-04-26 00:29 34.28736 -81.74290 21962 ft 428 kts 152°
2026-04-26 00:29 34.26172 -81.72441 22402 ft 431 kts 152°
2026-04-26 00:30 34.23583 -81.70579 22824 ft 434 kts 152°
2026-04-26 00:30 34.20978 -81.68709 23242 ft 437 kts 152°
2026-04-26 00:30 34.18356 -81.66828 23655 ft 440 kts 152°
2026-04-26 00:30 34.15720 -81.64942 24046 ft 443 kts 152°
2026-04-26 00:31 34.13055 -81.63036 24427 ft 445 kts 152°
2026-04-26 00:31 34.10380 -81.61120 24818 ft 448 kts 152°
2026-04-26 00:31 34.07662 -81.59174 25215 ft 450 kts 152°
2026-04-26 00:31 34.04966 -81.57245 25616 ft 452 kts 152°
2026-04-26 00:32 34.02251 -81.55302 26004 ft 454 kts 153°
2026-04-26 00:32 33.99533 -81.53358 26382 ft 455 kts 153°
2026-04-26 00:32 33.93781 -81.50302 27075 ft 452 kts 169°
2026-04-26 00:33 33.90701 -81.49611 27400 ft 450 kts 177°
2026-04-26 00:33 33.87582 -81.49208 27711 ft 451 kts 177°
2026-04-26 00:33 33.84454 -81.48796 28031 ft 453 kts 177°
2026-04-26 00:33 33.81321 -81.48377 28346 ft 455 kts 177°
2026-04-26 00:34 33.78176 -81.47952 28655 ft 456 kts 177°
2026-04-26 00:34 33.75008 -81.47517 28968 ft 458 kts 177°
2026-04-26 00:34 33.73616 -81.47326 29078 ft 459 kts 177°
2026-04-26 00:34 33.70436 -81.46891 29370 ft 460 kts 177°
2026-04-26 00:35 33.67250 -81.46458 29725 ft 459 kts 177°
2026-04-26 00:35 33.64082 -81.46031 30119 ft 458 kts 177°
2026-04-26 00:35 33.60914 -81.45605 30514 ft 457 kts 177°
2026-04-26 00:35 33.57759 -81.45179 30900 ft 456 kts 177°
2026-04-26 00:36 33.54613 -81.44756 31261 ft 455 kts 177°
2026-04-26 00:36 33.51470 -81.44335 31599 ft 455 kts 178°
2026-04-26 00:36 33.48326 -81.43917 31932 ft 454 kts 178°
2026-04-26 00:36 33.45188 -81.43500 32258 ft 454 kts 178°
2026-04-26 00:37 33.42049 -81.43082 32580 ft 453 kts 178°
2026-04-26 00:37 33.38919 -81.42667 32900 ft 453 kts 178°
2026-04-26 00:37 33.35788 -81.42252 33220 ft 453 kts 178°
2026-04-26 00:37 33.32658 -81.41836 33534 ft 452 kts 178°
2026-04-26 00:38 33.29533 -81.41419 33811 ft 452 kts 178°
2026-04-26 00:38 33.26409 -81.40828 33892 ft 456 kts 173°
2026-04-26 00:38 33.21199 -81.39495 33899 ft 457 kts 173°
2026-04-26 00:39 33.14968 -81.37909 33898 ft 458 kts 173°
2026-04-26 00:39 33.08736 -81.36335 33898 ft 458 kts 173°
2026-04-26 00:40 33.02756 -81.34822 33888 ft 459 kts 173°
2026-04-26 00:40 32.96506 -81.33240 33886 ft 459 kts 173°
2026-04-26 00:41 32.90253 -81.31656 33885 ft 460 kts 173°
2026-04-26 00:41 32.83948 -81.30067 33883 ft 460 kts 173°
2026-04-26 00:42 32.77681 -81.28486 33887 ft 461 kts 173°
2026-04-26 00:42 32.71410 -81.26912 33890 ft 461 kts 173°
2026-04-26 00:43 32.65144 -81.25352 33891 ft 461 kts 173°
2026-04-26 00:43 32.58853 -81.23779 33896 ft 461 kts 173°
2026-04-26 00:44 32.52568 -81.22209 33892 ft 461 kts 173°
2026-04-26 00:44 32.46263 -81.21269 33883 ft 453 kts 186°
2026-04-26 00:45 32.40124 -81.21565 33880 ft 451 kts 187°
2026-04-26 00:45 32.33842 -81.21883 33880 ft 451 kts 187°
2026-04-26 00:46 32.27565 -81.22191 33884 ft 452 kts 187°
2026-04-26 00:46 32.21285 -81.22503 33883 ft 452 kts 187°
2026-04-26 00:47 32.15005 -81.22816 33883 ft 452 kts 187°
2026-04-26 00:47 32.08713 -81.23130 33885 ft 453 kts 187°
2026-04-26 00:48 32.02372 -81.23442 33885 ft 453 kts 187°
2026-04-26 00:48 31.96074 -81.23673 33871 ft 456 kts 181°
2026-04-26 00:49 31.89732 -81.22923 33854 ft 459 kts 178°
2026-04-26 00:49 31.83368 -81.22119 33852 ft 460 kts 178°
2026-04-26 00:50 31.77002 -81.21321 33853 ft 461 kts 178°
2026-04-26 00:50 31.70620 -81.20530 33857 ft 462 kts 178°